Wind_Speed
13 13 13 15 16 16 16 17 17 17 19 20 27 27 29 27 28 29 25 23 21 21 20 19 19 21 18 8 20 11 11 10 9 10 11 9 12 6 4 4 3 5 5 8 16 6 13
15 15 15 16 17 16 17 17 18 20 17 16 18 21 24 27 29 30 29 26 22 22 20 18 19 20 14 8 10 10 16 23 17 14 14 13 6 7 5 5 3 3 8 16 11 12 12
16 16 17 17 17 17 18 19 18 17 20 19 17 18 19 21 25 29 30 29 26 23 20 17 19 19 19 29 16 11 11 14 16 13 14 14 14 7 1 4 4 5 5 7 7 9 6
16 16 17 17 18 19 17 20 20 17 19 19 20 18 19 21 21 23 26 30 28 22 22 15 17 15 16 16 21 17 20 19 20 15 13 11 7 8 5 5 5 5 1 2 3 6 5
17 17 17 18 17 18 18 19 20 19 19 19 19 21 21 22 24 23 26 26 26 21 22 16 14 11 17 14 15 4 7 24 23 15 16 9 6 8 6 4 4 4 5 4 8 3 3
18 18 19 19 19 18 19 19 20 19 19 19 20 21 22 21 23 26 28 26 18 13 11 8 8 7 20 14 8 8 12 7 18 13 14 9 8 4 2 4 6 5 4 2 3 5 1
20 19 22 20 19 20 20 19 19 20 21 20 20 20 21 22 21 23 26 24 6 2 5 11 10 13 14 10 15 7 4 5 16 16 6 8 4 9 9 7 5 2 3 5 6 9 4
21 22 23 22 21 21 21 19 19 20 20 21 21 20 20 21 21 21 18 9 6 11 15 23 28 37 40 31 17 21 5 9 10 6 6 3 14 8 8 5 5 5 5 11 9 9 7
21 22 23 20 19 21 20 20 20 21 20 20 20 19 19 19 20 19 12 4 5 23 7 14 26 31 38 24 24 37 19 7 5 7 9 8 4 14 10 5 6 7 7 10 8 8 4
22 24 22 23 22 23 22 21 20 20 21 19 19 17 15 18 17 11 9 4 9 17 4 8 7 12 16 16 9 40 23 14 6 14 7 7 13 4 5 10 8 7 10 11 8 2 5
23 24 23 24 24 23 22 22 22 20 21 20 17 14 15 17 13 14 10 14 14 2 5 3 5 3 9 18 4 13 36 20 8 7 8 10 7 11 13 16 7 9 5 9 9 7 3
25 25 24 24 24 23 22 23 22 19 20 19 18 16 14 19 21 16 19 16 8 2 9 6 4 5 7 11 5 4 13 18 17 3 3 12 4 6 9 7 10 10 4 3 0 4 2
27 26 26 27 24 23 22 23 22 20 22 21 18 18 18 21 20 13 12 9 4 6 6 5 4 3 5 6 5 2 8 12 8 7 8 5 9 3 2 2 2 5 2 3 3 0 5
28 27 28 25 24 24 23 23 20 21 23 20 19 18 20 24 19 16 11 1 11 2 8 7 6 11 4 5 5 5 7 6 5 4 4 10 5 11 6 12 7 6 9 5 6 4 4
28 28 27 26 26 25 24 23 23 22 22 20 17 21 25 27 19 12 3 7 4 4 4 8 10 3 5 4 2 3 6 7 9 8 6 6 6 4 6 7 11 4 5 7 5 3 2
30 29 29 28 27 26 25 24 26 24 25 22 22 24 29 25 18 16 4 11 8 2 8 9 4 5 5 8 5 5 3 1 7 11 7 4 2 5 5 4 5 7 5 2 2 4 4
32 30 31 30 29 28 26 26 28 23 25 22 23 13 16 26 18 14 8 7 11 26 17 4 5 5 4 5 5 5 4 3 5 3 10 9 4 6 4 4 7 2 3 2 3 4 6
35 35 34 32 30 29 27 29 28 23 24 25 23 5 18 28 10 8 12 8 11 8 9 6 1 6 2 7 5 3 3 6 12 4 2 4 5 10 18 8 3 3 6 8 5 4 2
37 36 36 32 31 30 30 30 28 26 28 22 11 6 27 36 10 12 5 10 12 4 5 2 3 2 4 2 4 1 4 4 23 9 4 5 3 2 14 4 3 7 6 5 2 3 10
41 39 38 34 34 33 33 31 30 30 31 29 7 5 10 24 9 16 10 9 12 15 13 4 3 3 2 3 2 4 5 5 22 5 4 7 3 4 4 5 5 3 8 8 9 6 4
42 42 41 36 37 37 36 35 34 33 35 31 16 6 9 7 14 8 16 9 16 10 14 4 7 13 4 3 4 3 6 5 6 6 4 4 2 4 10 11 10 15 12 9 12 7 9
43 44 42 41 40 41 40 37 37 36 36 36 11 6 8 4 20 20 17 15 16 17 10 15 10 4 3 14 11 4 5 3 6 3 2 2 1 5 6 12 15 14 16 18 16 5 7
49 49 46 44 45 43 40 39 37 35 36 31 28 13 12 10 14 18 21 20 18 14 14 24 11 10 10 14 18 23 22 16 10 8 3 4 4 0 3 11 16 10 8 10 9 6 7
37 35 39 40 40 40 40 39 38 37 42 41 26 20 11 9 12 14 17 21 21 17 17 13 26 13 12 9 17 21 19 19 11 7 7 6 5 1 3 4 5 6 23 10 13 13 8
31 29 32 35 36 37 36 36 37 39 42 45 39 28 20 11 9 17 15 20 26 25 19 23 19 27 13 18 3 3 3 3 7 7 8 5 5 3 3 2 8 13 8 7 11 20 6
34 32 31 30 31 31 32 32 36 39 41 45 44 31 25 5 16 14 17 20 10 11 12 16 28 23 6 2 2 3 3 4 1 3 6 5 3 3 2 3 5 10 18 14 12 16 6
33 32 31 32 33 34 34 33 32 35 39 42 31 47 24 8 13 22 14 17 17 13 4 7 9 14 24 2 1 3 4 3 3 7 4 3 2 4 2 4 7 8 8 3 2 6 14
25 28 30 32 34 35 34 34 35 36 36 38 35 41 39 13 8 15 25 16 20 24 6 9 4 4 4 5 4 4 3 5 5 5 7 6 8 4 3 3 8 10 2 8 7 19 24
22 24 26 29 32 29 37 38 36 38 39 38 25 28 37 12 7 14 24 30 34 36 28 16 9 6 11 4 2 2 2 1 5 3 3 4 6 6 8 6 6 12 8 9 11 10 19
Wind_Direction
306 308 306 306 306 306 307 308 308 306 293 292 291 302 303 303 305 307 304 300 297 298 303 310 313 310 314 275 249 238 235 254 251 238 240 230 226 201 207 168 194 218 269 294 313 244 205
301 298 302 298 298 302 301 299 302 305 305 306 302 299 299 301 298 300 301 300 294 291 297 306 305 305 305 275 274 254 238 245 232 237 241 224 226 241 272 237 177 226 289 294 297 209 193
310 310 308 307 304 300 302 300 299 298 301 310 312 303 306 299 295 297 298 299 290 290 293 297 296 297 286 266 273 250 236 211 207 228 237 238 227 262 335 298 265 279 313 316 238 203 203
300 296 295 295 297 299 301 302 303 302 304 302 302 307 310 309 307 307 303 297 289 290 284 283 285 286 266 289 274 254 229 214 213 223 247 227 207 246 249 272 342 1 76 309 278 150 229
296 297 297 294 290 294 297 298 300 306 309 308 307 304 302 305 311 312 309 306 302 284 273 269 265 274 268 273 265 294 247 235 220 241 240 230 231 232 204 104 4 359 254 243 319 320 126
288 293 290 293 295 299 298 300 303 308 308 308 309 312 310 304 308 315 317 317 310 287 265 226 237 283 254 260 288 283 303 268 214 217 233 213 199 176 93 121 217 220 236 277 249 290 13
288 288 286 282 285 288 290 293 298 298 301 304 303 304 305 312 314 312 322 341 342 258 285 223 219 222 257 287 287 264 34 260 192 199 178 190 162 203 195 193 147 170 277 265 255 264 250
286 283 284 287 280 282 287 288 295 297 297 297 294 297 300 310 314 311 316 351 26 337 296 273 254 254 253 264 295 263 253 187 176 175 153 240 229 194 184 191 204 213 251 269 286 264 173
284 283 285 286 281 283 284 285 287 290 295 296 295 291 292 299 302 304 301 333 346 343 271 280 250 246 247 231 231 257 241 215 178 157 191 206 270 174 168 187 202 231 207 257 226 298 212
280 280 282 285 278 278 277 281 284 288 293 288 288 288 293 293 298 302 304 222 306 329 287 267 217 248 212 201 237 234 229 201 203 197 153 227 241 171 172 225 171 257 205 233 249 229 234
280 278 280 280 278 278 278 281 277 280 280 286 279 276 284 278 270 284 292 284 304 162 305 234 196 295 174 167 256 211 214 194 190 193 156 221 185 206 220 230 148 234 224 216 248 212 163
277 277 279 278 276 276 276 279 278 276 273 278 272 267 268 263 261 282 296 295 312 234 245 292 209 158 143 213 277 75 165 192 216 186 254 219 215 157 198 221 180 240 290 283 51 155 188
276 277 276 277 277 277 277 277 277 271 270 270 263 258 252 259 259 273 300 316 224 215 314 302 338 169 204 175 219 227 164 175 169 175 214 274 240 252 174 300 192 156 134 299 299 173 219
276 277 277 276 275 274 276 276 273 270 267 268 259 254 246 250 256 263 298 273 232 241 257 319 325 330 214 154 235 182 115 166 239 124 157 201 283 193 205 200 192 183 171 172 212 203 238
274 274 275 274 269 270 273 273 271 264 267 259 253 247 240 240 240 233 173 228 234 214 307 357 330 316 333 6 56 145 167 175 202 195 175 184 250 229 192 181 177 231 175 206 121 13 73
272 272 273 270 265 268 270 268 267 259 256 254 249 250 240 236 226 207 201 237 233 271 26 352 314 12 13 330 41 33 147 241 196 183 202 215 270 229 240 157 238 206 171 83 13 159 244
272 271 271 271 264 266 268 267 268 258 249 243 244 242 228 224 205 190 221 218 238 264 308 342 346 328 353 1 356 350 308 44 52 328 203 192 166 261 351 194 195 163 206 170 155 156 199
271 271 271 267 263 261 264 264 261 253 246 236 235 231 177 198 190 206 223 213 231 265 296 244 301 251 316 358 334 312 294 25 351 344 32 239 173 227 247 236 217 157 222 185 194 240 245
271 270 270 265 260 259 262 261 256 243 235 233 225 202 185 188 207 213 203 209 234 254 239 323 236 29 231 222 293 270 314 29 24 15 50 344 319 263 277 334 282 238 217 203 139 124 201
272 269 267 261 257 258 261 258 253 240 231 226 200 187 185 199 214 202 197 197 206 233 264 256 282 332 296 322 283 295 326 328 343 320 39 73 338 47 269 291 298 224 216 205 202 201 192
276 270 266 258 256 259 258 254 249 237 226 222 210 224 188 201 206 188 191 216 209 217 211 237 252 238 249 316 336 246 258 343 341 311 10 96 228 338 323 301 294 271 258 236 219 211 213
276 272 267 260 257 259 256 251 245 234 224 223 202 187 187 170 189 200 198 211 213 210 216 220 246 314 208 236 218 298 306 301 237 278 108 299 171 22 333 303 324 267 254 253 250 230 240
281 272 261 257 257 255 251 247 239 230 217 218 216 206 204 180 183 195 211 213 211 209 219 228 228 239 257 254 251 239 246 252 258 274 289 158 139 219 238 347 334 285 274 247 261 224 196
285 259 257 254 252 251 248 244 238 230 218 215 210 203 202 215 204 200 187 201 213 215 218 220 236 241 253 306 283 261 255 252 241 246 205 158 131 108 311 38 255 320 320 262 235 237 234
283 266 256 252 250 247 243 238 233 228 218 217 215 205 208 232 214 202 188 191 204 208 223 217 231 231 269 302 286 269 298 269 228 217 205 176 123 151 179 173 292 302 302 33 19 313 266
277 266 260 252 246 241 236 233 228 224 221 218 217 213 210 217 220 196 197 190 179 190 210 227 233 245 229 216 176 231 234 245 226 137 112 90 86 130 174 177 227 259 260 341 0 294 335
271 262 257 252 246 241 237 232 225 220 213 210 213 220 214 212 202 191 191 192 183 164 175 200 220 232 231 166 265 208 245 255 230 172 172 98 65 199 185 227 267 267 269 235 160 277 319
267 258 251 248 243 238 231 227 224 218 213 213 217 209 203 214 184 192 196 192 178 179 170 196 128 215 123 172 173 211 183 220 199 167 163 155 179 193 186 223 282 174 85 135 214 301 304
265 261 256 249 242 238 230 225 219 218 214 212 211 212 192 199 181 192 210 215 210 210 194 171 191 170 168 164 191 145 183 60 172 225 192 186 185 188 191 210 232 202 241 251 221 242 299
Height
1533 1532 1531 1531 1531 1529 1525 1523 1525 1523 1518 1516 1516 1515 1514 1510 1508 1506 1504 1503 1501 1499 1498 1495 1492 1489 1487 1485 1476 1479 1478 1479 1482 1484 1484 1484 1486 1487 1487 1485 1487 1486 1482 1480 1477 1476 1477
1530 1530 1528 1528 1529 1527 1524 1521 1519 1519 1517 1511 1512 1509 1508 1508 1505 1502 1501 1499 1497 1496 1494 1494 1490 1488 1486 1484 1472 1471 1472 1473 1477 1481 1482 1482 1483 1484 1484 1484 1484 1481 1480 1477 1475 1474 1476
1527 1527 1527 1527 1526 1523 1522 1522 1517 1514 1515 1508 1507 1506 1505 1506 1504 1500 1497 1494 1492 1490 1490 1490 1488 1485 1481 1470 1469 1468 1468 1470 1473 1477 1479 1480 1481 1483 1482 1481 1480 1479 1480 1477 1472 1471 1471
1524 1524 1523 1523 1523 1523 1518 1519 1516 1510 1510 1507 1506 1504 1504 1503 1500 1497 1492 1489 1486 1486 1486 1485 1485 1483 1472 1465 1463 1463 1464 1466 1469 1473 1476 1477 1480 1482 1482 1480 1479 1481 1481 1487 1469 1470 1468
1520 1519 1520 1520 1519 1517 1516 1514 1514 1509 1507 1505 1502 1501 1500 1500 1496 1492 1488 1484 1481 1480 1480 1481 1481 1480 1465 1459 1458 1459 1458 1460 1467 1470 1473 1475 1479 1479 1479 1483 1489 1488 1494 1484 1476 1466 1469
1516 1515 1516 1516 1514 1513 1513 1511 1510 1507 1504 1501 1500 1498 1498 1496 1493 1490 1485 1481 1477 1474 1474 1477 1478 1481 1460 1457 1456 1457 1456 1457 1461 1467 1471 1472 1474 1477 1480 1484 1498 1494 1491 1484 1482 1470 1471
1511 1510 1513 1512 1508 1509 1508 1507 1506 1504 1502 1500 1498 1497 1496 1493 1490 1488 1485 1479 1480 1478 1475 1469 1465 1458 1453 1454 1453 1454 1454 1455 1459 1463 1468 1466 1473 1475 1474 1474 1476 1480 1484 1487 1478 1466 1471
1505 1507 1509 1505 1504 1504 1504 1503 1502 1501 1499 1497 1496 1495 1493 1490 1489 1487 1487 1487 1489 1489 1473 1462 1458 1453 1447 1454 1455 1449 1454 1455 1456 1460 1463 1468 1462 1461 1467 1472 1476 1480 1486 1484 1472 1462 1467
1499 1501 1503 1500 1499 1499 1499 1498 1497 1497 1495 1494 1493 1492 1491 1489 1487 1487 1486 1487 1487 1485 1478 1450 1445 1441 1438 1446 1446 1441 1450 1450 1452 1458 1459 1463 1456 1452 1463 1470 1475 1476 1481 1477 1477 1464 1463
1494 1496 1495 1495 1494 1494 1493 1493 1493 1492 1492 1491 1490 1489 1489 1487 1488 1484 1485 1486 1485 1484 1481 1445 1437 1427 1427 1435 1435 1431 1440 1447 1448 1452 1457 1460 1453 1455 1460 1464 1469 1477 1463 1465 1468 1471 1478
1488 1489 1489 1489 1488 1488 1488 1488 1488 1488 1487 1487 1487 1486 1487 1486 1485 1485 1487 1485 1484 1484 1484 1429 1427 1424 1423 1429 1426 1421 1428 1439 1444 1445 1450 1452 1449 1452 1457 1454 1461 1465 1456 1462 1461 1466 1467
1482 1482 1482 1482 1482 1482 1483 1482 1482 1482 1482 1482 1483 1483 1484 1483 1481 1484 1483 1482 1483 1485 1473 1433 1422 1422 1426 1426 1424 1421 1425 1433 1437 1443 1444 1446 1443 1445 1446 1446 1452 1451 1456 1456 1459 1466 1478
1475 1475 1475 1475 1476 1476 1477 1477 1476 1477 1478 1478 1479 1480 1481 1480 1480 1483 1482 1482 1479 1476 1444 1431 1425 1423 1421 1423 1424 1420 1424 1428 1436 1450 1452 1447 1444 1442 1441 1446 1447 1453 1461 1480 1479 1479 1478
1467 1467 1467 1468 1469 1470 1470 1471 1471 1472 1472 1473 1474 1476 1476 1476 1479 1482 1483 1484 1467 1451 1445 1431 1429 1424 1420 1419 1419 1418 1423 1432 1431 1434 1447 1452 1455 1440 1435 1439 1445 1449 1454 1477 1482 1484 1468
1459 1459 1460 1461 1462 1463 1463 1464 1466 1466 1467 1468 1471 1470 1469 1470 1476 1480 1484 1476 1453 1450 1444 1440 1431 1429 1425 1420 1416 1417 1422 1428 1427 1431 1441 1450 1446 1428 1427 1429 1436 1443 1452 1443 1465 1473 1477
1450 1451 1452 1452 1454 1455 1456 1458 1459 1460 1462 1464 1464 1464 1462 1466 1472 1477 1479 1464 1453 1449 1449 1447 1445 1435 1437 1431 1424 1424 1424 1421 1422 1421 1426 1433 1443 1427 1424 1426 1428 1431 1435 1451 1461 1471 1472
1441 1442 1442 1443 1445 1446 1447 1450 1451 1453 1455 1459 1460 1456 1453 1462 1468 1470 1463 1462 1456 1450 1455 1455 1449 1445 1442 1440 1432 1429 1426 1423 1421 1422 1422 1427 1435 1433 1425 1429 1432 1436 1439 1439 1445 1455 1462
1431 1431 1432 1433 1435 1437 1439 1441 1443 1446 1450 1452 1451 1447 1447 1454 1461 1456 1455 1457 1456 1454 1453 1453 1452 1450 1445 1444 1440 1433 1430 1426 1424 1422 1428 1426 1430 1434 1427 1420 1419 1423 1428 1431 1446 1447 1452
1420 1420 1421 1423 1425 1427 1430 1432 1434 1438 1442 1445 1441 1441 1442 1445 1444 1445 1451 1454 1456 1452 1451 1450 1449 1450 1445 1446 1449 1440 1434 1428 1429 1428 1429 1430 1434 1440 1428 1426 1421 1425 1423 1424 1428 1434 1437
1407 1408 1409 1411 1413 1416 1419 1421 1424 1428 1432 1437 1435 1435 1435 1434 1432 1437 1448 1449 1453 1451 1451 1452 1452 1450 1448 1447 1444 1443 1439 1431 1431 1431 1430 1428 1434 1441 1446 1435 1425 1422 1416 1418 1420 1436 1434
1394 1394 1395 1398 1401 1404 1407 1410 1413 1418 1423 1429 1424 1421 1420 1421 1426 1433 1440 1440 1444 1446 1448 1448 1445 1447 1453 1455 1450 1447 1441 1440 1436 1433 1431 1431 1440 1438 1437 1430 1424 1419 1416 1412 1412 1415 1423
1379 1379 1381 1384 1387 1390 1393 1397 1400 1406 1413 1415 1411 1412 1414 1416 1422 1430 1428 1428 1436 1441 1443 1444 1446 1446 1446 1448 1450 1447 1444 1443 1441 1433 1434 1435 1435 1438 1436 1427 1422 1417 1407 1405 1405 1409 1409
1361 1361 1364 1368 1371 1375 1378 1382 1386 1393 1401 1401 1403 1406 1410 1409 1412 1417 1414 1426 1430 1437 1439 1440 1443 1446 1446 1441 1440 1441 1441 1439 1438 1435 1433 1435 1441 1447 1440 1436 1436 1425 1410 1405 1404 1400 1399
1343 1343 1348 1352 1356 1360 1363 1368 1373 1379 1385 1390 1392 1399 1402 1397 1402 1404 1411 1421 1427 1431 1437 1438 1441 1445 1436 1436 1436 1436 1435 1434 1432 1431 1430 1435 1439 1443 1440 1442 1440 1414 1406 1396 1396 1394 1393
1334 1333 1335 1338 1342 1345 1349 1354 1360 1366 1373 1379 1384 1389 1392 1391 1396 1401 1405 1411 1420 1427 1432 1436 1435 1431 1436 1436 1436 1435 1438 1432 1429 1428 1428 1428 1436 1447 1451 1439 1427 1416 1408 1412 1419 1405 1388
1323 1323 1324 1326 1329 1333 1337 1342 1348 1355 1362 1369 1374 1381 1385 1386 1381 1395 1400 1405 1413 1422 1430 1431 1432 1433 1436 1435 1436 1435 1434 1425 1424 1424 1425 1429 1431 1441 1442 1436 1438 1408 1405 1406 1404 1406 1393
1310 1311 1313 1315 1318 1323 1327 1333 1339 1345 1352 1359 1363 1371 1376 1375 1383 1387 1389 1397 1406 1414 1420 1422 1422 1427 1429 1436 1439 1437 1434 1421 1423 1428 1430 1434 1435 1433 1437 1433 1423 1404 1403 1403 1412 1412 1398
1298 1299 1300 1303 1306 1311 1317 1323 1329 1337 1345 1352 1359 1361 1367 1372 1378 1381 1386 1389 1395 1403 1411 1412 1419 1419 1425 1432 1433 1429 1437 1423 1420 1418 1422 1427 1431 1431 1432 1432 1427 1401 1403 1405 1403 1398 1398
1288 1288 1289 1291 1294 1298 1304 1312 1320 1328 1338 1347 1354 1356 1362 1370 1374 1377 1380 1385 1385 1389 1399 1404 1403 1404 1407 1417 1420 1420 1427 1428 1418 1422 1411 1420 1416 1423 1421 1414 1398 1396 1395 1390 1391 1396 1396